Torna al catalogo

COSMOS 509

AttivoMilitareLEO
NORAD 6122·PAYLOAD·🇷🇺 Russia

Lanciato Jul 20, 1972 da Plesetsk Cosmodrome

Loading…

Prossimi Passaggi (prossime 24 ore)

TLE

AggiornatoSource: Space-Track

Epoca: Sep 14, 2026, 07:23 UTC

1 06122U 72057F   26257.30797667 -.00000013  00000-0  21162-4 0  9990
2 06122  74.0247 104.3146 0015877 206.9507 266.0695 12.44998389461083

Traccia COSMOS 509 in tempo reale con AllMySat

Download on the App Store